Location: Hlohovi?ky
(49.8934°N, 13.6739°E)
Time: 07:00:26
(UTC+00:00)

DELTA 2 DEB (DPAF) - Pass Details

Date: 19 May 2025
Orbit: 538 x 548 km, 98.4° (Epoch: 22 June)

Event Time Altitude Azimuth Distance (km) Brightness Sun altitude
Rises 21:05:08 0° 16° (NNE) 2,732 8.1 -15.5°
Maximum altitude 21:11:13 67° 103° (ESE) 597 3.8 -16.0°
Enters shadow 21:13:03 30° 178° (S) 1,000 4.6 -16.1°
